Wheaton NDB, MN

6:42 AM CDT on May 29, 2017 (GMT -0500)
Wheaton Municipal

Weather History for KETH - January, 2013

Change the Weather History Date:

Thursday, January 31, 2013

  Actual Average Record
Temperature  
Mean Temperature -10 °F -  
Max Temperature -5 °F 23 °F 46 °F (2009)
Min Temperature -14 °F 3 °F -28 °F (1982)
Degree Days  
Heating Degree Days 74    
Moisture  
Dew Point -17 °F    
Average Humidity 73    
Maximum Humidity 84    
Minimum Humidity 65    
Precipitation  
Precipitation 0.00 in - - ()
Sea Level Pressure  
Sea Level Pressure 30.19 in    
Wind  
Wind Speed 17 mph (WNW)    
Max Wind Speed 24 mph    
Max Gust Speed 32 mph    
Visibility 8 miles    
Events Snow    
Averages and records for this station are not official NWS values.
T = Trace of Precipitation, MM = Missing Value Source: NWS Daily Summary

Daily Weather History Graph

Daily Weather History Graph

Search for Another Location

Airport or City:

Trip Planner

Search our weather history database for the weather conditions in past years. The results will help you decide how hot, cold, wet, or windy it might be!

Date:

Astronomy

Jan. 31, 2013 Rise Set
Actual Time 7:48 AM CST 5:31 PM CST
Civil Twilight 7:16 AM CST 6:03 PM CST
Nautical Twilight 6:41 AM CST 6:38 PM CST
Astronomical Twilight 6:06 AM CST 7:13 PM CST
Moon 10:54 PM CST (1/31) 9:31 AM CST (1/31)
Length of Visible Light 10h 46m
Length of Day
9h 42m
Waning Gibbous, 79% of the Moon is Illuminated
Jan 31
Waning Gibbous
Feb 3
Last Quarter
Feb 10
New
Feb 17
First Quarter
Feb 25
Full

Hourly Weather History & Observations

Time (CST) Temp. Windchill Dew Point Humidity Pressure Visibility Wind Dir Wind Speed Gust Speed Precip Events Conditions
12:15 AM -5.8 °F -28.8 °F -11.2 °F 77% 29.93 in 5.0 mi WNW 18.4 mph 24.2 mph N/A   Haze
12:35 AM -7.6 °F -29.8 °F -11.2 °F 84% 29.93 in 7.0 mi WNW 16.1 mph - N/A   Overcast
12:55 AM -7.6 °F -30.5 °F -11.2 °F 84% 29.93 in 7.0 mi WNW 17.3 mph 23.0 mph N/A   Overcast
1:15 AM -5.8 °F -28.2 °F -11.2 °F 77% 29.94 in 7.0 mi WNW 17.3 mph - N/A   Overcast
1:35 AM -5.8 °F -29.4 °F -11.2 °F 77% 29.95 in 10.0 mi WNW 19.6 mph - N/A   Overcast
1:55 AM -7.6 °F -29.8 °F -11.2 °F 84% 29.96 in 10.0 mi WNW 16.1 mph 21.9 mph N/A   Overcast
2:15 AM -7.6 °F -29.8 °F -13.0 °F 77% 29.96 in 10.0 mi WNW 16.1 mph - N/A   Mostly Cloudy
2:35 AM -9.4 °F -28.9 °F -14.8 °F 77% 29.98 in 10.0 mi WNW 11.5 mph - N/A   Scattered Clouds
2:55 AM -9.4 °F -32.1 °F -16.6 °F 71% 29.98 in 10.0 mi WNW 16.1 mph 19.6 mph N/A   Clear
3:15 AM -11.2 °F -33.7 °F -18.4 °F 70% 29.98 in 10.0 mi WNW 15.0 mph - N/A   Clear
3:35 AM -11.2 °F -33.7 °F -18.4 °F 70% 29.99 in 10.0 mi WNW 15.0 mph 23.0 mph N/A   Clear
3:55 AM -13.0 °F -36.8 °F -18.4 °F 77% 30.00 in 10.0 mi West 16.1 mph - N/A   Clear
4:15 AM -14.8 °F -37.5 °F -20.2 °F 77% 30.01 in 10.0 mi West 13.8 mph - N/A   Clear
4:35 AM -14.8 °F -38.3 °F -20.2 °F 77% 30.02 in 10.0 mi WNW 15.0 mph - N/A   Clear
4:55 AM -13.0 °F -37.5 °F -20.2 °F 70% 30.03 in 10.0 mi WNW 17.3 mph 20.7 mph N/A   Scattered Clouds
5:15 AM -13.0 °F -40.0 °F -20.2 °F 70% 30.03 in 10.0 mi WNW 21.9 mph 27.6 mph N/A   Mostly Cloudy
5:35 AM -13.0 °F -37.5 °F -20.2 °F 70% 30.04 in 10.0 mi WNW 17.3 mph 25.3 mph N/A   Scattered Clouds
5:55 AM -14.8 °F -40.5 °F -20.2 °F 77% 30.05 in 10.0 mi WNW 18.4 mph 24.2 mph N/A   Scattered Clouds
6:15 AM -13.0 °F -37.5 °F -18.4 °F 77% 30.06 in 10.0 mi WNW 17.3 mph 25.3 mph N/A   Overcast
6:35 AM -13.0 °F -38.8 °F -18.4 °F 77% 30.07 in 10.0 mi WNW 19.6 mph 24.2 mph N/A   Overcast
6:55 AM -13.0 °F -37.5 °F -18.4 °F 77% 30.09 in 10.0 mi WNW 17.3 mph 26.5 mph N/A   Overcast
7:15 AM -13.0 °F -38.2 °F -18.4 °F 77% 30.10 in 7.0 mi WNW 18.4 mph 24.2 mph N/A   Overcast
7:35 AM -13.0 °F -36.8 °F -18.4 °F 77% 30.11 in 7.0 mi WNW 16.1 mph - N/A   Overcast
7:55 AM -11.2 °F -37.0 °F -18.4 °F 70% 30.12 in 4.0 mi WNW 20.7 mph 25.3 mph N/A   Haze
8:15 AM -11.2 °F -35.2 °F -16.6 °F 77% 30.13 in 4.0 mi WNW 17.3 mph 23.0 mph N/A   Haze
8:35 AM -11.2 °F -35.8 °F -16.6 °F 77% 30.15 in 4.0 mi WNW 18.4 mph 24.2 mph N/A Snow Light Snow
8:55 AM -11.2 °F -36.4 °F -16.6 °F 77% 30.16 in 5.0 mi WNW 19.6 mph 27.6 mph N/A   Haze
9:20 AM -9.4 °F -35.8 °F -16.6 °F 71% 30.17 in 4.0 mi WNW 23.0 mph 26.5 mph N/A   Haze
9:35 AM -9.4 °F -35.8 °F -16.6 °F 71% 30.18 in 3.0 mi WNW 23.0 mph 26.5 mph N/A   Haze
9:55 AM -9.4 °F -36.3 °F -16.6 °F 71% 30.19 in 3.0 mi WNW 24.2 mph 29.9 mph N/A   Haze
10:15 AM -9.4 °F -35.2 °F -16.6 °F 71% 30.20 in 4.0 mi WNW 21.9 mph 27.6 mph N/A   Haze
10:35 AM -9.4 °F -34.7 °F -16.6 °F 71% 30.21 in 2.5 mi WNW 20.7 mph 32.2 mph N/A   Haze
10:55 AM -9.4 °F -35.2 °F -16.6 °F 71% 30.22 in 3.0 mi WNW 21.9 mph 26.5 mph N/A   Haze
11:15 AM -9.4 °F -34.7 °F -16.6 °F 71% 30.22 in 7.0 mi WNW 20.7 mph 28.8 mph N/A   Scattered Clouds
11:35 AM -9.4 °F -35.8 °F -16.6 °F 71% 30.23 in 4.0 mi NW 23.0 mph 29.9 mph N/A   Haze
11:55 AM -9.4 °F -36.3 °F -16.6 °F 71% 30.23 in 5.0 mi NW 24.2 mph 29.9 mph N/A   Haze
12:15 PM -7.6 °F -32.3 °F -16.6 °F 65% 30.24 in 10.0 mi WNW 20.7 mph 27.6 mph N/A   Clear
12:35 PM -9.4 °F -35.2 °F -16.6 °F 71% 30.25 in 10.0 mi WNW 21.9 mph 26.5 mph N/A   Clear
12:55 PM -7.6 °F -32.3 °F -16.6 °F 65% 30.25 in 10.0 mi WNW 20.7 mph - N/A   Clear
1:15 PM -7.6 °F -33.4 °F -14.8 °F 71% 30.25 in 7.0 mi WNW 23.0 mph 26.5 mph N/A   Clear
1:35 PM -7.6 °F -32.9 °F -14.8 °F 71% 30.26 in 4.0 mi WNW 21.9 mph 26.5 mph N/A   Haze
1:55 PM -7.6 °F -31.7 °F -14.8 °F 71% 30.26 in 5.0 mi WNW 19.6 mph 27.6 mph N/A   Haze
2:15 PM -7.6 °F -29.8 °F -14.8 °F 71% 30.27 in 10.0 mi WNW 16.1 mph 26.5 mph N/A   Scattered Clouds
2:35 PM -7.6 °F -30.5 °F -14.8 °F 71% 30.27 in 7.0 mi WNW 17.3 mph 26.5 mph N/A   Scattered Clouds
2:55 PM -7.6 °F -32.3 °F -14.8 °F 71% 30.28 in 10.0 mi WNW 20.7 mph 25.3 mph N/A   Scattered Clouds
3:15 PM -7.6 °F -31.7 °F -14.8 °F 71% 30.28 in 10.0 mi WNW 19.6 mph 24.2 mph N/A   Clear
3:35 PM -7.6 °F -31.7 °F -14.8 °F 71% 30.29 in 10.0 mi WNW 19.6 mph - N/A   Scattered Clouds
3:55 PM -7.6 °F -31.1 °F -14.8 °F 71% 30.29 in 10.0 mi WNW 18.4 mph - N/A   Scattered Clouds
4:15 PM -7.6 °F -30.5 °F -16.6 °F 65% 30.30 in 10.0 mi WNW 17.3 mph 26.5 mph N/A   Clear
4:35 PM -7.6 °F -30.5 °F -16.6 °F 65% 30.30 in 10.0 mi WNW 17.3 mph 26.5 mph N/A   Clear
4:55 PM -7.6 °F -28.3 °F -16.6 °F 65% 30.30 in 10.0 mi WNW 13.8 mph 24.2 mph N/A   Clear
5:15 PM -7.6 °F -27.5 °F -16.6 °F 65% 30.31 in 10.0 mi WNW 12.7 mph - N/A   Clear
5:35 PM -9.4 °F -28.9 °F -16.6 °F 71% 30.31 in 10.0 mi WNW 11.5 mph - N/A   Clear
5:55 PM -9.4 °F -26.8 °F -16.6 °F 71% 30.32 in 10.0 mi WNW 9.2 mph - N/A   Clear
6:15 PM -9.4 °F -27.9 °F -18.4 °F 65% 30.32 in 10.0 mi West 10.4 mph - N/A   Clear
6:35 PM -11.2 °F -30.1 °F -18.4 °F 70% 30.32 in 10.0 mi WNW 10.4 mph - N/A   Clear
6:55 PM -11.2 °F -27.8 °F -18.4 °F 70% 30.32 in 10.0 mi West 8.1 mph - N/A   Clear
7:15 PM -11.2 °F -29.0 °F -18.4 °F 70% 30.32 in 10.0 mi West 9.2 mph - N/A   Clear
7:35 PM -13.0 °F -31.3 °F -18.4 °F 77% 30.32 in 10.0 mi West 9.2 mph - N/A   Clear
7:55 PM -13.0 °F -31.3 °F -18.4 °F 77% 30.32 in 10.0 mi West 9.2 mph - N/A   Clear
8:15 PM -13.0 °F -30.0 °F -20.2 °F 70% 30.33 in 10.0 mi West 8.1 mph - N/A   Clear
8:35 PM -13.0 °F -31.3 °F -20.2 °F 70% 30.33 in 10.0 mi West 9.2 mph - N/A   Clear
8:55 PM -14.8 °F -33.5 °F -20.2 °F 77% 30.33 in 10.0 mi West 9.2 mph - N/A   Clear
9:15 PM -14.8 °F -34.6 °F -20.2 °F 77% 30.33 in 10.0 mi West 10.4 mph - N/A   Clear
9:35 PM -14.8 °F -33.5 °F -20.2 °F 77% 30.33 in 10.0 mi West 9.2 mph - N/A   Clear
9:55 PM -14.8 °F -34.6 °F -20.2 °F 77% 30.33 in 10.0 mi West 10.4 mph - N/A   Clear
10:15 PM -14.8 °F -32.2 °F -20.2 °F 77% 30.33 in 10.0 mi West 8.1 mph - N/A   Clear
10:35 PM -14.8 °F -29.1 °F -20.2 °F 77% 30.33 in 10.0 mi West 5.8 mph - N/A   Clear
10:55 PM -14.8 °F -27.2 °F -20.2 °F 77% 30.33 in 10.0 mi West 4.6 mph - N/A   Clear
11:15 PM -14.8 °F -27.2 °F -22.0 °F 70% 30.32 in 10.0 mi WSW 4.6 mph - N/A   Clear
11:35 PM -14.8 °F -27.2 °F -22.0 °F 70% 30.32 in 10.0 mi WSW 4.6 mph - N/A   Clear
11:55 PM -14.8 °F -27.2 °F -20.2 °F 77% 30.32 in 10.0 mi WSW 4.6 mph - N/A   Clear